GFSWCAN_prec_precacc24_108.txt.gz
Total_Precipitation_Accumulation
0.14 0.13 0.13 0.12 0.12 0.09 0.07 0.07 0.09 0.12 0.11 0.10 0.16 0.24 0.34 0.40 0.38 0.44 0.26 0.20 0.27 0.24 0.06 0.02 0.02 0.02 0.02 0.07 0.14 0.21 0.39 0.34 0.35 0.38 0.31 0.22 0.06 0.09 0.18 0.35 0.26 0.15 0.15 0.15 0.17 0.19 0.06 0.02 0.06 0.22 0.19 0.10 0.03 0.02
0.14 0.13 0.11 0.11 0.10 0.09 0.07 0.07 0.07 0.07 0.09 0.09 0.10 0.15 0.23 0.35 0.50 0.70 0.62 0.24 0.25 0.39 0.21 0.06 0.01 0.00 0.01 0.03 0.13 0.30 0.41 0.47 0.30 0.30 0.25 0.18 0.17 0.20 0.16 0.26 0.63 0.28 0.09 0.06 0.03 0.06 0.03 0.01 0.04 0.12 0.07 0.06 0.06 0.04
0.11 0.09 0.10 0.11 0.10 0.09 0.06 0.05 0.05 0.06 0.06 0.08 0.10 0.11 0.16 0.22 0.43 0.84 0.89 0.37 0.47 0.82 0.49 0.09 0.04 0.00 0.00 0.01 0.07 0.27 0.24 0.55 0.76 0.54 0.46 0.35 0.36 0.28 0.26 0.30 0.63 0.54 0.30 0.21 0.08 0.02 0.01 0.03 0.03 0.05 0.05 0.01 0.02 0.01
0.10 0.12 0.08 0.08 0.10 0.09 0.07 0.05 0.04 0.03 0.05 0.07 0.09 0.11 0.12 0.17 0.30 0.75 1.05 0.75 0.38 0.68 0.39 0.08 0.00 0.00 0.00 0.00 0.03 0.05 0.08 0.22 0.32 0.47 0.50 0.34 0.16 0.12 0.21 0.19 0.28 0.65 0.66 0.25 0.14 0.15 0.07 0.04 0.04 0.04 0.03 0.03 0.01 0.00
0.17 0.14 0.13 0.11 0.12 0.14 0.15 0.12 0.08 0.06 0.05 0.06 0.09 0.11 0.12 0.16 0.24 0.63 0.86 0.62 0.41 0.29 0.29 0.13 0.02 0.01 0.02 0.00 0.01 0.02 0.12 0.14 0.23 0.38 0.32 0.18 0.10 0.14 0.10 0.16 0.42 0.44 0.79 0.61 0.54 0.28 0.22 0.11 0.08 0.04 0.03 0.01 0.02 0.00
0.24 0.17 0.13 0.12 0.11 0.10 0.10 0.13 0.11 0.11 0.09 0.08 0.07 0.13 0.15 0.24 0.56 1.06 1.52 0.93 0.57 0.37 0.73 0.37 0.18 0.06 0.05 0.01 0.02 0.05 0.08 0.15 0.29 0.37 0.27 0.14 0.11 0.23 0.22 0.13 0.16 0.19 0.51 0.66 0.86 0.57 0.47 0.17 0.15 0.02 0.02 0.02 0.01 0.01
0.18 0.14 0.13 0.11 0.10 0.10 0.10 0.10 0.10 0.07 0.12 0.13 0.11 0.14 0.21 0.38 0.77 1.00 0.56 0.22 0.22 0.71 1.46 0.44 0.08 0.09 0.04 0.05 0.06 0.12 0.20 0.35 0.32 0.32 0.19 0.09 0.08 0.24 0.20 0.06 0.02 0.18 0.19 0.38 0.88 0.96 1.11 0.72 0.58 0.34 0.14 0.03 0.00 0.02
0.15 0.14 0.14 0.10 0.06 0.07 0.10 0.12 0.13 0.11 0.11 0.19 0.16 0.21 0.32 0.55 1.02 0.72 0.21 0.27 0.41 0.92 0.92 0.44 0.15 0.28 0.25 0.31 0.17 0.17 0.30 0.39 0.53 0.38 0.17 0.05 0.04 0.15 0.14 0.01 0.01 0.03 0.02 0.13 0.16 0.14 0.39 0.39 0.20 0.09 0.02 0.00 0.02 0.02
0.19 0.19 0.18 0.16 0.14 0.13 0.11 0.12 0.17 0.21 0.24 0.33 0.38 0.60 1.40 2.14 1.52 0.41 0.21 0.36 0.37 0.62 0.48 0.17 0.07 0.22 0.23 0.52 0.44 0.26 0.28 0.51 0.29 0.27 0.16 0.14 0.11 0.13 0.09 0.04 0.03 0.02 0.01 0.01 0.00 0.01 0.02 0.01 0.00 0.00 0.00 0.00 0.01 0.01
0.25 0.20 0.19 0.16 0.15 0.19 0.18 0.19 0.26 0.37 0.68 0.99 1.73 2.56 2.12 0.90 0.21 0.51 1.53 1.21 0.95 0.76 0.35 0.11 0.10 0.17 0.17 0.19 0.51 0.58 0.33 0.23 0.31 0.11 0.06 0.11 0.09 0.09 0.08 0.04 0.02 0.01 0.00 0.00 0.00 0.00 0.00 0.00 0.00 0.00 0.00 0.00 0.01 0.01
0.20 0.20 0.25 0.20 0.14 0.16 0.27 0.33 0.59 1.40 2.31 2.07 1.69 0.80 0.32 0.25 0.31 0.89 1.34 0.75 0.49 0.24 0.06 0.02 0.06 0.16 0.17 0.26 0.35 0.51 0.57 0.17 0.13 0.08 0.09 0.14 0.16 0.12 0.05 0.02 0.01 0.00 0.00 0.00 0.00 0.00 0.00 0.00 0.00 0.00 0.00 0.00 0.00 0.01
0.16 0.15 0.15 0.20 0.22 0.25 0.42 0.73 1.26 1.58 1.22 0.46 0.43 0.46 0.52 0.55 0.79 0.82 0.60 0.31 0.08 0.02 0.01 0.01 0.02 0.13 0.20 0.38 0.63 0.57 0.47 0.40 0.19 0.18 0.19 0.23 0.21 0.08 0.02 0.02 0.01 0.00 0.00 0.00 0.00 0.00 0.00 0.00 0.00 0.01 0.01 0.01 0.02 0.02
0.13 0.16 0.18 0.25 0.29 0.40 0.71 0.87 0.59 0.22 0.08 0.11 0.20 0.32 0.38 0.45 0.51 0.34 0.20 0.10 0.09 0.08 0.01 0.01 0.05 0.07 0.20 0.27 0.64 0.64 0.44 0.31 0.25 0.79 0.54 0.18 0.09 0.04 0.02 0.01 0.01 0.00 0.00 0.00 0.00 0.00 0.00 0.01 0.01 0.01 0.02 0.03 0.03 0.04
0.24 0.32 0.32 0.29 0.34 0.54 0.76 0.60 0.50 0.33 0.21 0.17 0.16 0.20 0.20 0.08 0.13 0.07 0.06 0.03 0.02 0.03 0.02 0.04 0.04 0.07 0.08 0.19 0.25 0.26 0.22 0.19 0.29 0.18 0.19 0.16 0.08 0.05 0.02 0.01 0.01 0.01 0.02 0.02 0.03 0.02 0.03 0.03 0.03 0.05 0.07 0.06 0.05 0.09
0.26 0.28 0.35 0.41 0.57 0.67 0.65 0.69 0.44 0.24 0.11 0.06 0.01 0.01 0.03 0.05 0.05 0.05 0.04 0.03 0.02 0.05 0.05 0.12 0.13 0.11 0.09 0.12 0.10 0.16 0.22 0.22 0.12 0.10 0.09 0.07 0.03 0.01 0.02 0.01 0.01 0.02 0.03 0.05 0.04 0.04 0.05 0.07 0.10 0.14 0.15 0.15 0.14 0.17
0.19 0.51 0.62 0.51 0.50 0.60 0.63 0.40 0.12 0.02 0.00 0.00 0.03 0.06 0.08 0.08 0.08 0.07 0.09 0.08 0.07 0.13 0.18 0.26 0.23 0.17 0.15 0.08 0.12 0.09 0.16 0.16 0.10 0.08 0.06 0.02 0.02 0.03 0.03 0.04 0.04 0.05 0.07 0.07 0.07 0.09 0.12 0.16 0.24 0.36 0.43 0.42 0.43 0.40
0.36 0.72 0.50 0.43 0.50 0.49 0.24 0.03 0.01 0.00 0.00 0.01 0.05 0.07 0.08 0.07 0.09 0.11 0.13 0.12 0.15 0.25 0.25 0.23 0.22 0.13 0.28 0.06 0.04 0.05 0.08 0.11 0.12 0.07 0.04 0.02 0.04 0.06 0.08 0.08 0.09 0.08 0.10 0.12 0.12 0.14 0.17 0.23 0.27 0.31 0.41 0.53 0.51 0.53
0.17 0.18 0.18 0.19 0.21 0.11 0.05 0.01 0.00 0.00 0.02 0.06 0.06 0.11 0.05 0.08 0.08 0.09 0.12 0.14 0.16 0.13 0.07 0.09 0.04 0.01 0.03 0.04 0.07 0.14 0.15 0.13 0.05 0.05 0.05 0.05 0.05 0.05 0.08 0.08 0.09 0.10 0.11 0.13 0.13 0.17 0.19 0.20 0.21 0.27 0.28 0.33 0.33 0.39
0.04 0.03 0.03 0.01 0.01 0.02 0.04 0.00 0.00 0.01 0.06 0.07 0.08 0.08 0.07 0.09 0.13 0.12 0.13 0.14 0.10 0.04 0.06 0.11 0.13 0.09 0.11 0.13 0.17 0.16 0.16 0.17 0.17 0.14 0.11 0.11 0.10 0.09 0.10 0.10 0.10 0.11 0.14 0.18 0.17 0.17 0.20 0.22 0.22 0.23 0.25 0.26 0.23 0.31
0.04 0.03 0.01 0.01 0.01 0.00 0.00 0.00 0.00 0.00 0.03 0.03 0.04 0.04 0.05 0.12 0.13 0.11 0.10 0.09 0.07 0.06 0.10 0.11 0.15 0.16 0.20 0.22 0.24 0.27 0.23 0.18 0.17 0.21 0.14 0.09 0.11 0.11 0.12 0.12 0.14 0.16 0.15 0.16 0.19 0.18 0.18 0.20 0.25 0.24 0.23 0.26 0.20 0.23
0.01 0.00 0.00 0.00 0.00 0.00 0.01 0.01 0.01 0.01 0.02 0.03 0.04 0.02 0.04 0.02 0.03 0.06 0.07 0.04 0.04 0.12 0.16 0.17 0.19 0.20 0.21 0.23 0.20 0.17 0.14 0.10 0.10 0.10 0.12 0.12 0.12 0.11 0.14 0.14 0.11 0.11 0.12 0.16 0.16 0.22 0.21 0.18 0.23 0.23 0.19 0.18 0.16 0.11
0.00 0.00 0.00 0.00 0.00 0.00 0.02 0.02 0.01 0.01 0.01 0.04 0.05 0.02 0.02 0.02 0.02 0.01 0.01 0.02 0.11 0.21 0.21 0.21 0.20 0.20 0.15 0.15 0.15 0.13 0.13 0.09 0.07 0.07 0.08 0.10 0.11 0.11 0.14 0.16 0.14 0.14 0.15 0.17 0.15 0.15 0.17 0.16 0.13 0.09 0.08 0.08 0.06 0.06
0.00 0.00 0.00 0.00 0.00 0.00 0.04 0.08 0.03 0.05 0.04 0.05 0.01 0.02 0.04 0.03 0.03 0.01 0.02 0.07 0.17 0.22 0.19 0.18 0.17 0.12 0.12 0.14 0.09 0.08 0.10 0.06 0.08 0.12 0.12 0.13 0.14 0.16 0.15 0.16 0.17 0.16 0.14 0.19 0.16 0.14 0.11 0.08 0.06 0.04 0.03 0.03 0.02 0.03
0.00 0.00 0.00 0.00 0.00 0.01 0.02 0.01 0.00 0.01 0.01 0.01 0.00 0.02 0.02 0.01 0.00 0.00 0.04 0.10 0.17 0.16 0.12 0.11 0.14 0.13 0.06 0.04 0.05 0.06 0.10 0.08 0.07 0.09 0.13 0.10 0.11 0.15 0.14 0.15 0.15 0.16 0.15 0.14 0.10 0.08 0.07 0.05 0.03 0.02 0.01 0.01 0.01 0.01
0.00 0.00 0.00 0.00 0.00 0.00 0.00 0.00 0.00 0.00 0.01 0.00 0.00 0.02 0.02 0.00 0.00 0.01 0.03 0.08 0.05 0.04 0.06 0.06 0.02 0.02 0.03 0.04 0.04 0.04 0.04 0.05 0.05 0.05 0.12 0.14 0.15 0.14 0.14 0.15 0.15 0.17 0.13 0.08 0.08 0.06 0.06 0.04 0.03 0.02 0.01 0.00 0.00 0.00
0.00 0.00 0.00 0.00 0.00 0.00 0.00 0.00 0.00 0.00 0.00 0.00 0.01 0.01 0.00 0.00 0.00 0.02 0.04 0.06 0.04 0.04 0.04 0.06 0.06 0.02 0.02 0.02 0.03 0.03 0.04 0.05 0.04 0.04 0.10 0.11 0.14 0.16 0.15 0.13 0.12 0.12 0.10 0.07 0.05 0.04 0.04 0.04 0.03 0.02 0.02 0.02 0.01 0.00
0.00 0.00 0.00 0.00 0.00 0.00 0.00 0.00 0.00 0.00 0.00 0.00 0.00 0.00 0.00 0.00 0.02 0.04 0.04 0.04 0.03 0.04 0.03 0.03 0.02 0.02 0.03 0.04 0.05 0.06 0.04 0.03 0.03 0.05 0.08 0.07 0.07 0.07 0.07 0.08 0.09 0.14 0.09 0.06 0.04 0.03 0.02 0.02 0.02 0.02 0.01 0.01 0.01 0.00
0.00 0.00 0.00 0.00 0.00 0.00 0.00 0.00 0.00 0.00 0.01 0.00 0.00 0.00 0.00 0.01 0.04 0.06 0.03 0.03 0.03 0.03 0.02 0.02 0.01 0.01 0.01 0.01 0.02 0.02 0.02 0.03 0.02 0.02 0.02 0.01 0.01 0.02 0.04 0.03 0.03 0.02 0.02 0.02 0.02 0.01 0.01 0.01 0.00 0.00 0.00 0.00 0.00 0.00
0.00 0.00 0.00 0.00 0.00 0.00 0.01 0.01 0.01 0.02 0.02 0.01 0.00 0.02 0.03 0.07 0.08 0.05 0.04 0.04 0.05 0.04 0.03 0.03 0.05 0.02 0.01 0.00 0.00 0.00 0.00 0.01 0.02 0.02 0.02 0.01 0.00 0.01 0.01 0.01 0.02 0.02 0.01 0.01 0.01 0.01 0.00 0.00 0.00 0.00 0.00 0.00 0.00 0.00
0.00 0.00 0.00 0.00 0.01 0.02 0.06 0.03 0.03 0.02 0.01 0.00 0.01 0.03 0.04 0.10 0.14 0.07 0.05 0.04 0.03 0.02 0.02 0.01 0.01 0.01 0.01 0.01 0.00 0.00 0.00 0.01 0.01 0.01 0.01 0.01 0.01 0.01 0.01 0.01 0.01 0.01 0.01 0.00 0.00 0.01 0.01 0.01 0.01 0.00 0.00 0.00 0.00 0.00
0.00 0.00 0.00 0.00 0.03 0.05 0.04 0.02 0.01 0.01 0.00 0.00 0.00 0.00 0.03 0.06 0.06 0.05 0.03 0.04 0.04 0.04 0.03 0.01 0.00 0.00 0.00 0.00 0.01 0.01 0.00 0.00 0.00 0.01 0.01 0.01 0.01 0.01 0.01 0.00 0.00 0.01 0.01 0.01 0.00 0.00 0.00 0.01 0.00 0.00 0.00 0.00 0.00 0.00
0.00 0.00 0.00 0.01 0.04 0.03 0.05 0.03 0.00 0.01 0.00 0.00 0.01 0.01 0.02 0.01 0.02 0.03 0.03 0.04 0.06 0.02 0.01 0.01 0.00 0.00 0.00 0.00 0.00 0.00 0.00 0.00 0.00 0.00 0.00 0.01 0.01 0.01 0.00 0.00 0.00 0.00 0.00 0.00 0.00 0.00 0.00 0.01 0.01 0.01 0.01 0.00 0.00 0.00
0.00 0.00 0.00 0.00 0.01 0.01 0.02 0.01 0.00 0.00 0.01 0.01 0.01 0.02 0.02 0.01 0.02 0.03 0.03 0.04 0.04 0.01 0.01 0.00 0.00 0.00 0.00 0.00 0.00 0.00 0.00 0.00 0.00 0.00 0.00 0.00 0.00 0.00 0.00 0.01 0.00 0.00 0.00 0.00 0.00 0.00 0.00 0.00 0.00 0.00 0.00 0.00 0.00 0.00

GFSWCAN_prec_precacc24_111.txt.gz
Total_Precipitation_Accumulation
0.14 0.14 0.14 0.13 0.13 0.10 0.07 0.06 0.06 0.09 0.09 0.09 0.13 0.21 0.28 0.30 0.34 0.35 0.16 0.11 0.22 0.17 0.02 0.01 0.02 0.02 0.02 0.04 0.08 0.18 0.31 0.27 0.27 0.29 0.29 0.22 0.08 0.10 0.20 0.36 0.27 0.15 0.10 0.07 0.04 0.10 0.03 0.01 0.03 0.08 0.07 0.09 0.04 0.02
0.15 0.16 0.14 0.14 0.11 0.13 0.10 0.07 0.07 0.06 0.08 0.10 0.10 0.14 0.22 0.32 0.42 0.49 0.40 0.11 0.17 0.27 0.07 0.03 0.01 0.00 0.01 0.02 0.09 0.22 0.37 0.45 0.29 0.29 0.25 0.18 0.17 0.21 0.18 0.30 0.64 0.33 0.15 0.14 0.02 0.01 0.01 0.01 0.03 0.04 0.01 0.05 0.06 0.02
0.10 0.12 0.16 0.15 0.11 0.09 0.13 0.11 0.06 0.05 0.06 0.09 0.12 0.11 0.15 0.22 0.42 0.68 0.51 0.23 0.36 0.63 0.34 0.07 0.02 0.00 0.00 0.00 0.07 0.27 0.23 0.53 0.72 0.54 0.45 0.33 0.36 0.28 0.26 0.31 0.64 0.57 0.36 0.31 0.10 0.02 0.01 0.03 0.03 0.05 0.05 0.01 0.03 0.01
0.10 0.15 0.13 0.16 0.12 0.10 0.08 0.15 0.08 0.04 0.04 0.07 0.10 0.12 0.12 0.16 0.31 0.71 0.82 0.46 0.29 0.56 0.34 0.06 0.00 0.00 0.00 0.00 0.03 0.05 0.08 0.22 0.30 0.39 0.45 0.30 0.13 0.12 0.22 0.19 0.32 0.77 0.78 0.46 0.26 0.17 0.11 0.04 0.04 0.05 0.04 0.06 0.01 0.00
0.15 0.15 0.18 0.18 0.14 0.11 0.13 0.11 0.08 0.06 0.04 0.04 0.08 0.11 0.13 0.15 0.23 0.58 0.81 0.45 0.21 0.26 0.24 0.11 0.02 0.01 0.02 0.00 0.01 0.02 0.11 0.13 0.20 0.33 0.26 0.15 0.07 0.13 0.10 0.17 0.52 0.56 1.01 0.82 0.78 0.34 0.36 0.13 0.09 0.08 0.07 0.05 0.09 0.05
0.26 0.20 0.15 0.20 0.13 0.10 0.11 0.14 0.11 0.09 0.07 0.05 0.05 0.11 0.14 0.22 0.51 0.88 1.36 0.85 0.36 0.23 0.70 0.32 0.16 0.06 0.05 0.01 0.02 0.05 0.08 0.14 0.24 0.31 0.22 0.12 0.11 0.25 0.23 0.13 0.17 0.21 0.68 0.97 1.06 0.69 0.53 0.23 0.19 0.05 0.07 0.07 0.05 0.18
0.26 0.20 0.19 0.13 0.14 0.11 0.11 0.11 0.12 0.07 0.11 0.10 0.07 0.11 0.20 0.36 0.63 0.71 0.47 0.21 0.20 0.56 1.30 0.41 0.07 0.09 0.04 0.05 0.06 0.12 0.19 0.31 0.25 0.22 0.14 0.08 0.08 0.23 0.20 0.05 0.02 0.18 0.24 0.53 1.09 1.22 1.30 0.93 0.97 0.69 0.29 0.15 0.13 0.03
0.23 0.21 0.25 0.12 0.08 0.08 0.11 0.13 0.15 0.14 0.10 0.16 0.11 0.16 0.30 0.53 0.83 0.50 0.19 0.41 0.61 0.93 0.87 0.40 0.12 0.27 0.25 0.30 0.16 0.16 0.28 0.34 0.42 0.31 0.14 0.05 0.04 0.15 0.13 0.01 0.01 0.03 0.03 0.16 0.20 0.19 0.52 0.55 0.42 0.37 0.16 0.04 0.00 0.01
0.27 0.23 0.24 0.15 0.14 0.13 0.11 0.13 0.17 0.22 0.22 0.30 0.34 0.53 1.31 1.87 1.16 0.25 0.19 0.37 0.49 0.79 0.55 0.15 0.07 0.19 0.22 0.51 0.42 0.23 0.22 0.39 0.23 0.23 0.11 0.11 0.10 0.13 0.09 0.04 0.03 0.02 0.01 0.01 0.00 0.01 0.02 0.01 0.01 0.02 0.03 0.01 0.00 0.00
0.31 0.20 0.16 0.13 0.12 0.17 0.17 0.16 0.21 0.31 0.61 0.93 1.57 2.18 1.75 0.65 0.12 0.44 1.39 1.20 1.02 0.81 0.42 0.13 0.08 0.10 0.13 0.18 0.50 0.53 0.32 0.20 0.26 0.10 0.06 0.11 0.10 0.10 0.08 0.05 0.02 0.01 0.00 0.00 0.00 0.00 0.00 0.00 0.00 0.00 0.00 0.00 0.01 0.01
0.21 0.13 0.12 0.11 0.11 0.14 0.20 0.21 0.40 1.11 2.08 1.93 1.47 0.64 0.18 0.18 0.31 0.77 1.22 0.76 0.50 0.26 0.08 0.02 0.05 0.11 0.10 0.24 0.36 0.51 0.60 0.19 0.11 0.08 0.09 0.14 0.17 0.14 0.07 0.03 0.02 0.01 0.00 0.00 0.00 0.00 0.00 0.00 0.00 0.01 0.00 0.00 0.00 0.01
0.17 0.12 0.09 0.13 0.16 0.20 0.38 0.69 1.21 1.55 1.21 0.44 0.36 0.42 0.54 0.52 0.66 0.69 0.64 0.30 0.05 0.02 0.01 0.01 0.02 0.10 0.16 0.34 0.64 0.54 0.43 0.38 0.20 0.19 0.19 0.23 0.22 0.09 0.03 0.03 0.01 0.01 0.00 0.00 0.00 0.00 0.00 0.00 0.00 0.01 0.01 0.01 0.02 0.02
0.14 0.16 0.17 0.23 0.27 0.38 0.69 0.85 0.61 0.24 0.10 0.27 0.41 0.40 0.35 0.40 0.50 0.31 0.22 0.09 0.03 0.05 0.01 0.01 0.04 0.06 0.19 0.27 0.63 0.72 0.56 0.33 0.29 0.83 0.54 0.18 0.10 0.05 0.03 0.02 0.00 0.00 0.00 0.00 0.00 0.00 0.00 0.01 0.01 0.01 0.02 0.03 0.03 0.04
0.24 0.32 0.31 0.27 0.33 0.53 0.75 0.60 0.51 0.37 0.34 0.40 0.30 0.24 0.19 0.09 0.13 0.07 0.05 0.02 0.01 0.01 0.01 0.04 0.04 0.07 0.08 0.19 0.23 0.21 0.28 0.32 0.37 0.21 0.20 0.16 0.09 0.05 0.03 0.02 0.00 0.00 0.01 0.01 0.01 0.01 0.02 0.02 0.02 0.03 0.05 0.05 0.04 0.07
0.27 0.29 0.35 0.41 0.58 0.67 0.64 0.69 0.51 0.41 0.37 0.22 0.03 0.01 0.03 0.03 0.03 0.04 0.03 0.02 0.01 0.04 0.04 0.12 0.14 0.13 0.12 0.14 0.12 0.16 0.21 0.21 0.11 0.11 0.10 0.08 0.03 0.01 0.01 0.01 0.00 0.01 0.01 0.02 0.02 0.02 0.03 0.03 0.03 0.06 0.08 0.10 0.10 0.14
0.20 0.53 0.63 0.53 0.53 0.65 0.74 0.62 0.43 0.24 0.13 0.03 0.03 0.05 0.07 0.06 0.06 0.05 0.06 0.05 0.05 0.09 0.14 0.29 0.27 0.18 0.18 0.09 0.12 0.09 0.16 0.16 0.10 0.08 0.06 0.02 0.01 0.02 0.02 0.02 0.02 0.02 0.03 0.04 0.04 0.04 0.05 0.05 0.06 0.09 0.13 0.18 0.25 0.27
0.44 0.79 0.52 0.49 0.64 0.71 0.50 0.21 0.11 0.10 0.02 0.01 0.04 0.06 0.07 0.06 0.08 0.09 0.10 0.09 0.12 0.22 0.27 0.28 0.38 0.20 0.28 0.05 0.04 0.04 0.07 0.10 0.11 0.06 0.03 0.02 0.02 0.03 0.04 0.03 0.05 0.05 0.06 0.06 0.06 0.07 0.09 0.09 0.08 0.07 0.12 0.22 0.30 0.38
0.29 0.21 0.27 0.36 0.40 0.27 0.13 0.05 0.05 0.03 0.02 0.04 0.05 0.08 0.03 0.06 0.07 0.07 0.09 0.12 0.16 0.14 0.08 0.10 0.04 0.01 0.03 0.04 0.06 0.12 0.14 0.12 0.04 0.02 0.02 0.02 0.02 0.02 0.02 0.02 0.04 0.05 0.06 0.07 0.08 0.10 0.11 0.10 0.10 0.14 0.15 0.21 0.23 0.30
0.09 0.07 0.06 0.03 0.01 0.03 0.09 0.02 0.00 0.01 0.05 0.06 0.07 0.07 0.05 0.07 0.10 0.09 0.10 0.12 0.09 0.04 0.05 0.09 0.13 0.06 0.08 0.09 0.12 0.12 0.13 0.14 0.14 0.10 0.07 0.05 0.05 0.05 0.05 0.05 0.05 0.06 0.09 0.13 0.12 0.11 0.13 0.14 0.15 0.16 0.17 0.18 0.17 0.25
0.08 0.07 0.02 0.01 0.01 0.00 0.00 0.00 0.00 0.00 0.03 0.03 0.04 0.03 0.04 0.10 0.10 0.07 0.06 0.05 0.05 0.06 0.09 0.10 0.13 0.12 0.16 0.18 0.20 0.23 0.20 0.16 0.15 0.18 0.11 0.06 0.07 0.06 0.07 0.07 0.09 0.10 0.10 0.11 0.12 0.12 0.12 0.15 0.18 0.18 0.17 0.20 0.17 0.20
0.04 0.02 0.00 0.00 0.00 0.00 0.01 0.01 0.01 0.01 0.01 0.02 0.03 0.01 0.04 0.02 0.03 0.04 0.04 0.03 0.02 0.09 0.12 0.15 0.16 0.17 0.17 0.19 0.17 0.15 0.12 0.09 0.08 0.07 0.09 0.08 0.08 0.08 0.09 0.10 0.07 0.07 0.08 0.11 0.11 0.16 0.16 0.14 0.18 0.18 0.16 0.16 0.15 0.11
0.01 0.00 0.00 0.00 0.00 0.00 0.01 0.01 0.01 0.01 0.01 0.04 0.04 0.02 0.02 0.02 0.02 0.01 0.01 0.01 0.09 0.18 0.17 0.18 0.17 0.18 0.13 0.13 0.14 0.12 0.12 0.08 0.06 0.05 0.06 0.07 0.08 0.08 0.10 0.10 0.08 0.09 0.10 0.12 0.11 0.11 0.13 0.13 0.11 0.09 0.08 0.08 0.06 0.06
0.00 0.00 0.00 0.00 0.00 0.00 0.03 0.08 0.03 0.05 0.03 0.05 0.01 0.02 0.04 0.03 0.03 0.01 0.02 0.07 0.15 0.21 0.17 0.17 0.16 0.12 0.12 0.14 0.09 0.08 0.10 0.06 0.07 0.10 0.08 0.08 0.09 0.10 0.10 0.11 0.11 0.11 0.11 0.15 0.12 0.11 0.10 0.08 0.06 0.04 0.04 0.03 0.03 0.03
0.00 0.00 0.00 0.00 0.00 0.02 0.03 0.01 0.00 0.01 0.01 0.01 0.00 0.02 0.02 0.01 0.00 0.00 0.03 0.09 0.16 0.16 0.12 0.12 0.14 0.12 0.06 0.03 0.04 0.04 0.08 0.06 0.05 0.06 0.09 0.06 0.07 0.10 0.10 0.11 0.12 0.13 0.13 0.12 0.10 0.09 0.08 0.06 0.04 0.03 0.02 0.01 0.01 0.02
0.00 0.00 0.00 0.00 0.00 0.00 0.00 0.00 0.00 0.00 0.01 0.00 0.00 0.02 0.02 0.00 0.00 0.01 0.02 0.07 0.05 0.03 0.05 0.05 0.02 0.01 0.02 0.03 0.03 0.03 0.03 0.04 0.03 0.03 0.09 0.10 0.11 0.10 0.10 0.11 0.13 0.16 0.14 0.09 0.09 0.07 0.06 0.05 0.03 0.02 0.01 0.00 0.00 0.00
0.00 0.00 0.00 0.00 0.00 0.00 0.00 0.00 0.00 0.00 0.00 0.00 0.01 0.01 0.00 0.00 0.00 0.02 0.03 0.06 0.04 0.04 0.03 0.05 0.05 0.02 0.02 0.02 0.02 0.03 0.03 0.03 0.02 0.02 0.07 0.08 0.10 0.12 0.11 0.10 0.09 0.11 0.11 0.07 0.05 0.05 0.05 0.04 0.03 0.03 0.02 0.02 0.01 0.01
0.00 0.00 0.00 0.00 0.00 0.00 0.00 0.00 0.00 0.00 0.00 0.00 0.00 0.00 0.00 0.00 0.01 0.03 0.04 0.03 0.03 0.03 0.02 0.02 0.01 0.01 0.03 0.03 0.04 0.04 0.03 0.01 0.02 0.03 0.06 0.05 0.06 0.06 0.06 0.07 0.09 0.14 0.10 0.06 0.04 0.03 0.03 0.03 0.03 0.02 0.02 0.02 0.01 0.01
0.00 0.00 0.00 0.00 0.00 0.00 0.00 0.00 0.00 0.00 0.00 0.00 0.00 0.00 0.00 0.01 0.04 0.05 0.02 0.02 0.02 0.02 0.01 0.01 0.01 0.00 0.01 0.01 0.02 0.02 0.02 0.02 0.02 0.01 0.02 0.01 0.01 0.02 0.04 0.03 0.03 0.02 0.02 0.03 0.02 0.01 0.01 0.01 0.01 0.01 0.01 0.00 0.01 0.00
0.00 0.00 0.00 0.00 0.00 0.00 0.01 0.01 0.01 0.02 0.01 0.01 0.00 0.01 0.03 0.07 0.07 0.04 0.03 0.03 0.04 0.04 0.03 0.03 0.04 0.02 0.01 0.00 0.00 0.01 0.01 0.01 0.02 0.02 0.02 0.01 0.00 0.01 0.01 0.01 0.02 0.02 0.01 0.01 0.01 0.01 0.00 0.00 0.00 0.00 0.00 0.00 0.00 0.00
0.00 0.00 0.00 0.00 0.01 0.02 0.06 0.03 0.03 0.02 0.01 0.00 0.01 0.03 0.04 0.09 0.13 0.06 0.04 0.03 0.02 0.02 0.01 0.01 0.01 0.01 0.01 0.01 0.00 0.00 0.01 0.01 0.01 0.02 0.01 0.01 0.01 0.01 0.01 0.01 0.01 0.01 0.01 0.00 0.00 0.01 0.01 0.01 0.00 0.00 0.00 0.00 0.00 0.00
0.00 0.00 0.00 0.00 0.03 0.05 0.05 0.02 0.01 0.01 0.00 0.00 0.00 0.00 0.03 0.06 0.06 0.04 0.03 0.03 0.03 0.04 0.03 0.01 0.00 0.00 0.00 0.00 0.01 0.01 0.00 0.00 0.00 0.01 0.01 0.01 0.01 0.01 0.01 0.00 0.00 0.01 0.01 0.01 0.00 0.00 0.00 0.01 0.00 0.00 0.00 0.00 0.00 0.00
0.00 0.00 0.00 0.01 0.04 0.03 0.05 0.03 0.00 0.01 0.00 0.00 0.01 0.01 0.02 0.01 0.02 0.03 0.03 0.04 0.06 0.02 0.01 0.01 0.00 0.00 0.00 0.00 0.00 0.00 0.00 0.00 0.00 0.00 0.00 0.01 0.01 0.01 0.00 0.00 0.00 0.00 0.00 0.00 0.00 0.00 0.00 0.01 0.01 0.01 0.01 0.00 0.00 0.00
0.00 0.00 0.00 0.00 0.01 0.01 0.02 0.00 0.00 0.00 0.01 0.01 0.01 0.01 0.02 0.01 0.02 0.03 0.03 0.04 0.03 0.01 0.01 0.00 0.00 0.00 0.00 0.00 0.00 0.00 0.00 0.00 0.00 0.00 0.00 0.00 0.00 0.00 0.00 0.01 0.00 0.00 0.00 0.00 0.00 0.00 0.00 0.00 0.00 0.00 0.00 0.00 0.00 0.00

GFSWCAN_prec_precacc24_117.txt.gz
Total_Precipitation_Accumulation
0.13 0.13 0.13 0.14 0.23 0.22 0.15 0.11 0.07 0.08 0.07 0.02 0.03 0.04 0.08 0.14 0.25 0.21 0.09 0.07 0.19 0.16 0.01 0.01 0.00 0.00 0.00 0.01 0.04 0.06 0.10 0.16 0.18 0.18 0.26 0.21 0.11 0.12 0.24 0.37 0.27 0.17 0.15 0.11 0.04 0.06 0.04 0.00 0.01 0.05 0.07 0.12 0.50 0.55
0.14 0.16 0.14 0.14 0.14 0.19 0.24 0.21 0.16 0.07 0.06 0.07 0.05 0.06 0.07 0.12 0.22 0.29 0.16 0.05 0.15 0.23 0.04 0.01 0.00 0.00 0.00 0.00 0.03 0.09 0.22 0.32 0.23 0.25 0.25 0.17 0.15 0.21 0.20 0.37 0.67 0.39 0.28 0.23 0.04 0.03 0.02 0.01 0.04 0.05 0.02 0.19 0.47 0.18
0.10 0.11 0.16 0.14 0.12 0.12 0.20 0.29 0.28 0.19 0.07 0.05 0.08 0.07 0.09 0.16 0.24 0.33 0.19 0.10 0.32 0.46 0.14 0.00 0.00 0.00 0.00 0.00 0.02 0.13 0.17 0.46 0.62 0.48 0.41 0.27 0.32 0.28 0.27 0.34 0.68 0.59 0.40 0.42 0.17 0.10 0.06 0.04 0.04 0.05 0.05 0.07 0.53 0.14
0.09 0.13 0.11 0.17 0.16 0.13 0.12 0.25 0.33 0.22 0.14 0.05 0.06 0.08 0.09 0.15 0.28 0.43 0.41 0.18 0.19 0.40 0.20 0.00 0.00 0.00 0.00 0.00 0.00 0.02 0.05 0.16 0.23 0.27 0.26 0.20 0.10 0.11 0.21 0.20 0.41 0.93 0.98 0.67 0.41 0.21 0.20 0.09 0.06 0.06 0.04 0.08 0.11 0.22
0.12 0.10 0.14 0.16 0.19 0.17 0.14 0.17 0.32 0.28 0.15 0.06 0.06 0.07 0.10 0.14 0.24 0.43 0.53 0.30 0.11 0.18 0.16 0.05 0.01 0.01 0.02 0.00 0.00 0.00 0.01 0.02 0.04 0.12 0.12 0.07 0.04 0.08 0.06 0.15 0.67 0.74 1.20 1.06 1.02 0.48 0.53 0.21 0.14 0.11 0.08 0.10 0.23 0.15
0.17 0.14 0.11 0.18 0.22 0.21 0.17 0.18 0.27 0.24 0.12 0.06 0.04 0.08 0.11 0.20 0.47 0.62 0.95 0.53 0.19 0.16 0.54 0.20 0.07 0.03 0.04 0.01 0.01 0.01 0.02 0.04 0.10 0.12 0.07 0.06 0.06 0.19 0.20 0.14 0.25 0.27 0.78 1.21 1.41 0.93 0.80 0.47 0.29 0.11 0.21 0.32 0.40 0.42
0.20 0.16 0.17 0.13 0.20 0.25 0.25 0.16 0.29 0.23 0.12 0.09 0.05 0.09 0.17 0.31 0.52 0.44 0.31 0.16 0.09 0.44 1.09 0.33 0.06 0.04 0.01 0.02 0.02 0.04 0.05 0.09 0.09 0.10 0.07 0.04 0.07 0.19 0.15 0.04 0.02 0.19 0.31 0.67 1.31 1.43 1.48 1.05 1.08 0.78 0.38 0.28 0.31 0.13
0.24 0.19 0.23 0.12 0.19 0.24 0.31 0.21 0.24 0.28 0.12 0.14 0.10 0.12 0.25 0.44 0.68 0.36 0.16 0.51 0.69 0.86 0.67 0.29 0.08 0.12 0.19 0.22 0.10 0.09 0.13 0.18 0.22 0.14 0.07 0.03 0.05 0.13 0.08 0.01 0.01 0.03 0.06 0.19 0.23 0.22 0.58 0.64 0.49 0.44 0.21 0.07 0.01 0.01
0.23 0.19 0.29 0.17 0.24 0.30 0.36 0.25 0.25 0.31 0.21 0.26 0.29 0.36 0.90 1.25 0.74 0.15 0.15 0.47 0.58 0.80 0.49 0.12 0.05 0.18 0.19 0.46 0.36 0.16 0.12 0.21 0.16 0.19 0.06 0.11 0.09 0.12 0.09 0.04 0.03 0.02 0.01 0.01 0.00 0.01 0.02 0.02 0.02 0.04 0.07 0.04 0.01 0.00
0.23 0.20 0.26 0.15 0.21 0.32 0.40 0.23 0.28 0.36 0.56 0.73 1.06 1.19 1.16 0.36 0.08 0.25 0.97 0.98 0.91 0.75 0.41 0.14 0.05 0.09 0.11 0.16 0.49 0.57 0.39 0.17 0.22 0.08 0.07 0.14 0.11 0.11 0.08 0.05 0.03 0.01 0.00 0.00 0.00 0.00 0.00 0.00 0.00 0.00 0.00 0.02 0.02 0.02
0.23 0.21 0.19 0.13 0.20 0.27 0.33 0.25 0.41 0.93 1.62 1.34 0.78 0.33 0.13 0.11 0.31 0.63 1.06 0.64 0.45 0.27 0.08 0.02 0.03 0.10 0.09 0.18 0.36 0.52 0.58 0.33 0.17 0.07 0.09 0.14 0.22 0.15 0.08 0.03 0.02 0.01 0.00 0.00 0.00 0.00 0.00 0.00 0.00 0.01 0.00 0.00 0.00 0.01
0.22 0.24 0.12 0.14 0.20 0.20 0.29 0.49 0.93 1.32 0.98 0.24 0.16 0.30 0.60 0.43 0.52 0.56 0.68 0.32 0.07 0.02 0.01 0.00 0.01 0.07 0.12 0.29 0.66 0.55 0.40 0.31 0.21 0.19 0.19 0.24 0.23 0.10 0.03 0.03 0.01 0.01 0.00 0.00 0.00 0.00 0.00 0.00 0.00 0.01 0.01 0.02 0.02 0.03
0.22 0.21 0.18 0.24 0.19 0.23 0.53 0.81 0.61 0.22 0.08 0.28 0.49 0.57 0.47 0.27 0.52 0.28 0.24 0.11 0.02 0.03 0.00 0.00 0.03 0.05 0.06 0.16 0.66 0.75 0.65 0.32 0.30 0.85 0.55 0.18 0.11 0.06 0.04 0.02 0.01 0.00 0.00 0.00 0.00 0.00 0.00 0.00 0.00 0.01 0.02 0.03 0.03 0.03
0.27 0.27 0.31 0.26 0.28 0.49 0.80 0.62 0.48 0.33 0.34 0.51 0.48 0.44 0.23 0.09 0.15 0.06 0.03 0.03 0.01 0.00 0.00 0.03 0.04 0.06 0.04 0.08 0.14 0.23 0.38 0.54 0.49 0.23 0.20 0.19 0.11 0.06 0.03 0.03 0.02 0.01 0.01 0.00 0.00 0.00 0.00 0.00 0.00 0.02 0.02 0.03 0.02 0.03
0.29 0.27 0.35 0.42 0.59 0.67 0.68 0.72 0.52 0.41 0.47 0.47 0.23 0.12 0.03 0.03 0.03 0.03 0.02 0.01 0.01 0.00 0.02 0.09 0.11 0.11 0.15 0.13 0.16 0.16 0.15 0.18 0.16 0.15 0.18 0.16 0.05 0.02 0.01 0.00 0.00 0.00 0.01 0.02 0.01 0.00 0.00 0.01 0.00 0.02 0.02 0.03 0.03 0.04
0.22 0.55 0.66 0.55 0.56 0.69 0.78 0.70 0.52 0.28 0.20 0.15 0.05 0.05 0.06 0.04 0.04 0.03 0.04 0.03 0.02 0.02 0.07 0.18 0.24 0.19 0.19 0.12 0.14 0.10 0.16 0.16 0.12 0.09 0.06 0.02 0.01 0.02 0.02 0.01 0.01 0.01 0.01 0.01 0.01 0.01 0.01 0.01 0.01 0.03 0.03 0.04 0.05 0.05
0.46 0.82 0.55 0.52 0.69 0.76 0.55 0.32 0.20 0.15 0.05 0.03 0.03 0.05 0.06 0.05 0.05 0.07 0.06 0.06 0.06 0.14 0.19 0.21 0.40 0.32 0.33 0.06 0.04 0.03 0.07 0.09 0.10 0.06 0.02 0.01 0.02 0.02 0.03 0.01 0.01 0.01 0.01 0.01 0.01 0.01 0.01 0.02 0.01 0.01 0.03 0.06 0.05 0.07
0.30 0.23 0.29 0.41 0.49 0.36 0.24 0.11 0.08 0.06 0.04 0.03 0.04 0.06 0.02 0.05 0.05 0.05 0.06 0.08 0.12 0.12 0.08 0.12 0.05 0.03 0.06 0.06 0.06 0.10 0.13 0.12 0.03 0.01 0.01 0.01 0.01 0.00 0.01 0.01 0.01 0.02 0.02 0.02 0.01 0.01 0.01 0.01 0.01 0.03 0.05 0.06 0.05 0.07
0.11 0.09 0.09 0.08 0.05 0.06 0.16 0.04 0.00 0.01 0.05 0.04 0.06 0.05 0.03 0.05 0.07 0.06 0.07 0.09 0.10 0.07 0.06 0.07 0.13 0.06 0.05 0.06 0.09 0.09 0.10 0.10 0.09 0.06 0.04 0.02 0.01 0.01 0.02 0.01 0.01 0.02 0.04 0.05 0.05 0.04 0.04 0.04 0.05 0.06 0.06 0.06 0.06 0.09
0.14 0.10 0.05 0.04 0.02 0.01 0.01 0.00 0.00 0.00 0.02 0.02 0.02 0.02 0.02 0.07 0.06 0.04 0.03 0.04 0.05 0.06 0.08 0.07 0.09 0.09 0.12 0.14 0.15 0.18 0.15 0.13 0.13 0.17 0.10 0.04 0.04 0.02 0.02 0.02 0.02 0.02 0.03 0.03 0.03 0.03 0.04 0.06 0.07 0.07 0.06 0.07 0.08 0.10
0.18 0.12 0.08 0.04 0.02 0.01 0.01 0.01 0.01 0.01 0.01 0.02 0.03 0.01 0.04 0.01 0.01 0.02 0.01 0.00 0.02 0.06 0.09 0.10 0.12 0.13 0.12 0.13 0.12 0.11 0.10 0.08 0.08 0.08 0.09 0.07 0.06 0.04 0.05 0.05 0.03 0.02 0.02 0.03 0.04 0.05 0.05 0.06 0.08 0.08 0.08 0.09 0.10 0.09
0.09 0.06 0.07 0.02 0.00 0.00 0.01 0.00 0.01 0.01 0.01 0.03 0.04 0.02 0.02 0.02 0.02 0.01 0.01 0.01 0.06 0.12 0.11 0.10 0.11 0.12 0.08 0.10 0.11 0.11 0.11 0.06 0.05 0.05 0.05 0.06 0.06 0.05 0.06 0.05 0.03 0.04 0.05 0.05 0.04 0.06 0.07 0.07 0.06 0.06 0.07 0.08 0.07 0.07
0.01 0.01 0.00 0.02 0.02 0.00 0.02 0.08 0.03 0.04 0.03 0.04 0.01 0.02 0.04 0.03 0.03 0.01 0.02 0.06 0.13 0.17 0.13 0.14 0.14 0.11 0.11 0.13 0.09 0.08 0.09 0.05 0.05 0.08 0.06 0.05 0.06 0.06 0.06 0.06 0.05 0.06 0.07 0.08 0.06 0.06 0.07 0.07 0.06 0.06 0.05 0.05 0.04 0.05
0.00 0.01 0.02 0.03 0.01 0.03 0.04 0.02 0.00 0.01 0.01 0.00 0.00 0.02 0.02 0.01 0.00 0.00 0.03 0.08 0.15 0.16 0.11 0.10 0.12 0.11 0.05 0.03 0.03 0.03 0.06 0.04 0.02 0.04 0.05 0.03 0.03 0.06 0.05 0.06 0.06 0.07 0.07 0.08 0.07 0.07 0.07 0.07 0.05 0.04 0.03 0.02 0.03 0.03
0.03 0.01 0.00 0.00 0.00 0.00 0.00 0.00 0.00 0.00 0.00 0.00 0.00 0.02 0.02 0.00 0.00 0.00 0.02 0.06 0.04 0.03 0.04 0.04 0.01 0.01 0.02 0.02 0.02 0.01 0.01 0.02 0.01 0.02 0.04 0.06 0.06 0.05 0.05 0.05 0.07 0.10 0.09 0.07 0.08 0.07 0.07 0.06 0.04 0.03 0.02 0.02 0.01 0.01
0.00 0.00 0.00 0.00 0.00 0.00 0.00 0.00 0.00 0.00 0.00 0.00 0.01 0.01 0.00 0.00 0.00 0.01 0.03 0.04 0.02 0.02 0.02 0.03 0.04 0.01 0.01 0.01 0.01 0.02 0.02 0.01 0.01 0.01 0.04 0.05 0.06 0.07 0.06 0.05 0.05 0.06 0.07 0.07 0.06 0.06 0.07 0.05 0.04 0.04 0.03 0.03 0.02 0.02
0.00 0.00 0.00 0.00 0.00 0.00 0.00 0.00 0.00 0.00 0.00 0.00 0.00 0.00 0.00 0.00 0.01 0.02 0.03 0.02 0.02 0.02 0.01 0.01 0.00 0.01 0.02 0.02 0.03 0.03 0.01 0.00 0.00 0.02 0.03 0.03 0.03 0.03 0.03 0.04 0.05 0.10 0.08 0.06 0.05 0.05 0.04 0.04 0.04 0.04 0.04 0.03 0.02 0.02
0.00 0.00 0.00 0.00 0.00 0.00 0.00 0.00 0.00 0.00 0.00 0.00 0.00 0.00 0.00 0.01 0.03 0.04 0.01 0.01 0.01 0.01 0.00 0.00 0.00 0.00 0.00 0.00 0.01 0.01 0.01 0.02 0.01 0.01 0.02 0.01 0.01 0.02 0.03 0.04 0.03 0.02 0.02 0.03 0.03 0.02 0.02 0.02 0.02 0.02 0.02 0.02 0.02 0.02
0.00 0.00 0.00 0.00 0.00 0.00 0.01 0.01 0.01 0.01 0.01 0.01 0.00 0.01 0.02 0.06 0.06 0.03 0.02 0.02 0.03 0.03 0.02 0.02 0.03 0.01 0.00 0.00 0.00 0.01 0.01 0.02 0.02 0.02 0.02 0.01 0.00 0.01 0.01 0.01 0.02 0.02 0.01 0.01 0.02 0.02 0.01 0.01 0.00 0.00 0.01 0.01 0.01 0.01
0.00 0.00 0.00 0.00 0.01 0.02 0.05 0.02 0.03 0.01 0.00 0.00 0.01 0.02 0.03 0.08 0.12 0.06 0.03 0.02 0.01 0.01 0.01 0.01 0.01 0.01 0.01 0.01 0.00 0.00 0.01 0.01 0.02 0.02 0.01 0.01 0.01 0.01 0.01 0.01 0.01 0.01 0.01 0.00 0.01 0.01 0.02 0.01 0.01 0.01 0.00 0.01 0.01 0.01
0.00 0.00 0.00 0.00 0.02 0.05 0.05 0.02 0.02 0.01 0.00 0.00 0.00 0.01 0.03 0.06 0.06 0.04 0.03 0.03 0.03 0.03 0.02 0.01 0.00 0.00 0.00 0.00 0.01 0.01 0.00 0.01 0.01 0.01 0.01 0.01 0.01 0.01 0.01 0.00 0.01 0.01 0.01 0.01 0.00 0.00 0.01 0.01 0.01 0.01 0.01 0.01 0.00 0.00
0.00 0.00 0.00 0.00 0.03 0.03 0.05 0.02 0.00 0.00 0.00 0.00 0.00 0.00 0.02 0.01 0.02 0.03 0.02 0.04 0.04 0.01 0.00 0.00 0.00 0.00 0.00 0.00 0.00 0.00 0.00 0.00 0.00 0.00 0.00 0.00 0.00 0.00 0.00 0.00 0.00 0.00 0.00 0.00 0.00 0.00 0.01 0.01 0.01 0.01 0.01 0.01 0.01 0.00
0.00 0.00 0.00 0.00 0.01 0.01 0.01 0.00 0.00 0.00 0.00 0.00 0.01 0.01 0.02 0.01 0.01 0.02 0.03 0.03 0.02 0.01 0.01 0.00 0.00 0.00 0.00 0.00 0.00 0.00 0.00 0.00 0.00 0.00 0.00 0.00 0.00 0.00 0.00 0.01 0.01 0.00 0.00 0.00 0.00 0.00 0.00 0.00 0.01 0.00 0.00 0.00 0.00 0.00

GFSWCAN_prec_precacc24_123.txt.gz
Total_Precipitation_Accumulation
0.13 0.13 0.15 0.16 0.31 0.34 0.22 0.17 0.10 0.10 0.09 0.02 0.02 0.04 0.07 0.13 0.22 0.11 0.07 0.03 0.09 0.11 0.01 0.00 0.00 0.00 0.00 0.00 0.02 0.01 0.00 0.04 0.07 0.13 0.25 0.23 0.14 0.14 0.16 0.19 0.25 0.20 0.14 0.14 0.07 0.09 0.21 0.03 0.01 0.11 0.16 0.16 0.68 1.21
0.13 0.17 0.15 0.17 0.18 0.32 0.39 0.30 0.25 0.12 0.10 0.08 0.04 0.04 0.05 0.09 0.18 0.18 0.14 0.05 0.07 0.15 0.03 0.00 0.00 0.00 0.00 0.00 0.00 0.01 0.01 0.02 0.08 0.15 0.23 0.12 0.11 0.16 0.18 0.37 0.61 0.53 0.35 0.29 0.15 0.23 0.18 0.02 0.06 0.08 0.05 0.22 0.73 0.88
0.10 0.12 0.18 0.15 0.16 0.17 0.31 0.46 0.39 0.32 0.12 0.08 0.07 0.05 0.04 0.08 0.13 0.14 0.13 0.12 0.21 0.25 0.05 0.00 0.00 0.00 0.00 0.00 0.00 0.01 0.01 0.05 0.12 0.16 0.26 0.20 0.24 0.19 0.19 0.35 0.60 0.52 0.38 0.40 0.14 0.16 0.07 0.04 0.03 0.05 0.07 0.09 0.69 0.56
0.09 0.13 0.13 0.18 0.16 0.15 0.16 0.38 0.54 0.43 0.30 0.08 0.07 0.05 0.05 0.08 0.13 0.18 0.17 0.13 0.13 0.27 0.16 0.01 0.00 0.00 0.00 0.00 0.00 0.00 0.01 0.04 0.08 0.14 0.15 0.15 0.08 0.06 0.07 0.13 0.38 0.92 0.94 0.63 0.35 0.16 0.20 0.09 0.07 0.07 0.06 0.11 0.15 0.41
0.13 0.11 0.14 0.17 0.18 0.17 0.14 0.20 0.47 0.48 0.42 0.26 0.09 0.06 0.06 0.07 0.13 0.19 0.23 0.19 0.07 0.15 0.15 0.02 0.00 0.01 0.02 0.00 0.00 0.00 0.00 0.01 0.02 0.07 0.08 0.05 0.02 0.04 0.03 0.12 0.69 0.76 1.14 0.97 0.98 0.45 0.55 0.20 0.12 0.12 0.10 0.12 0.26 0.19
0.16 0.13 0.08 0.15 0.19 0.18 0.16 0.19 0.30 0.37 0.36 0.46 0.20 0.09 0.09 0.12 0.26 0.41 0.51 0.22 0.09 0.16 0.37 0.09 0.01 0.00 0.03 0.01 0.00 0.00 0.01 0.01 0.05 0.10 0.05 0.03 0.03 0.15 0.16 0.11 0.26 0.24 0.73 1.06 1.35 0.86 0.75 0.49 0.31 0.12 0.23 0.35 0.44 0.45
0.18 0.12 0.13 0.08 0.15 0.21 0.22 0.14 0.32 0.28 0.25 0.38 0.33 0.13 0.16 0.22 0.33 0.32 0.23 0.15 0.06 0.33 0.66 0.19 0.03 0.03 0.00 0.01 0.01 0.01 0.02 0.06 0.07 0.11 0.04 0.02 0.05 0.13 0.12 0.04 0.04 0.13 0.27 0.64 1.29 1.41 1.46 1.05 1.09 0.78 0.39 0.30 0.35 0.15
0.18 0.16 0.19 0.09 0.15 0.21 0.31 0.20 0.29 0.36 0.21 0.32 0.27 0.19 0.23 0.34 0.51 0.29 0.17 0.49 0.69 0.60 0.49 0.23 0.04 0.11 0.07 0.08 0.05 0.03 0.06 0.13 0.14 0.10 0.05 0.04 0.05 0.10 0.07 0.02 0.00 0.02 0.05 0.14 0.21 0.22 0.58 0.64 0.49 0.44 0.21 0.07 0.01 0.01
0.19 0.17 0.24 0.13 0.19 0.27 0.38 0.27 0.30 0.54 0.31 0.38 0.46 0.39 0.69 0.82 0.60 0.19 0.09 0.45 0.57 0.70 0.42 0.11 0.05 0.22 0.04 0.11 0.14 0.10 0.07 0.14 0.10 0.13 0.03 0.10 0.09 0.13 0.11 0.03 0.01 0.01 0.01 0.01 0.00 0.01 0.02 0.02 0.02 0.04 0.07 0.04 0.02 0.01
0.23 0.20 0.27 0.16 0.22 0.29 0.40 0.31 0.37 0.67 0.58 0.70 1.03 0.96 0.81 0.23 0.10 0.16 0.50 0.66 0.70 0.58 0.32 0.12 0.01 0.26 0.15 0.07 0.32 0.49 0.36 0.16 0.22 0.08 0.06 0.14 0.13 0.12 0.04 0.03 0.02 0.01 0.00 0.00 0.00 0.00 0.00 0.00 0.00 0.00 0.00 0.02 0.02 0.02
0.24 0.24 0.20 0.16 0.24 0.28 0.36 0.37 0.53 0.96 1.37 1.17 0.73 0.32 0.16 0.12 0.27 0.47 0.74 0.45 0.28 0.20 0.07 0.01 0.00 0.05 0.13 0.11 0.31 0.50 0.54 0.36 0.22 0.12 0.11 0.18 0.28 0.15 0.07 0.03 0.02 0.01 0.00 0.00 0.00 0.00 0.00 0.00 0.00 0.01 0.00 0.00 0.00 0.01
0.21 0.23 0.13 0.17 0.24 0.28 0.42 0.62 0.95 1.36 0.89 0.24 0.15 0.31 0.62 0.39 0.41 0.44 0.58 0.30 0.07 0.01 0.01 0.00 0.00 0.00 0.06 0.20 0.57 0.57 0.38 0.24 0.16 0.22 0.22 0.21 0.16 0.07 0.03 0.03 0.01 0.01 0.00 0.00 0.00 0.00 0.00 0.00 0.00 0.01 0.01 0.01 0.03 0.03
0.19 0.16 0.12 0.19 0.27 0.31 0.71 0.93 0.69 0.24 0.07 0.26 0.49 0.55 0.45 0.22 0.42 0.17 0.20 0.12 0.02 0.02 0.03 0.00 0.01 0.01 0.05 0.14 0.56 0.77 0.64 0.33 0.33 0.68 0.45 0.15 0.10 0.06 0.04 0.02 0.01 0.00 0.00 0.00 0.00 0.00 0.00 0.00 0.00 0.01 0.01 0.02 0.02 0.02
0.16 0.10 0.17 0.23 0.32 0.47 0.95 0.60 0.38 0.28 0.29 0.48 0.47 0.40 0.24 0.09 0.09 0.04 0.03 0.04 0.04 0.06 0.06 0.02 0.02 0.04 0.05 0.10 0.16 0.25 0.41 0.60 0.67 0.38 0.23 0.20 0.12 0.07 0.04 0.04 0.02 0.01 0.01 0.00 0.00 0.00 0.00 0.00 0.00 0.01 0.01 0.02 0.01 0.02
0.14 0.17 0.27 0.37 0.40 0.64 0.75 0.56 0.46 0.43 0.50 0.49 0.26 0.21 0.07 0.07 0.04 0.04 0.05 0.06 0.06 0.06 0.07 0.08 0.08 0.07 0.16 0.11 0.14 0.10 0.14 0.25 0.19 0.23 0.23 0.20 0.09 0.04 0.03 0.01 0.01 0.00 0.00 0.01 0.00 0.00 0.00 0.00 0.00 0.01 0.02 0.01 0.01 0.02
0.22 0.54 0.58 0.44 0.59 0.82 0.82 0.72 0.53 0.29 0.20 0.16 0.11 0.15 0.13 0.07 0.04 0.10 0.04 0.03 0.02 0.05 0.10 0.26 0.26 0.09 0.17 0.11 0.12 0.11 0.15 0.32 0.13 0.07 0.05 0.02 0.01 0.02 0.01 0.01 0.01 0.00 0.00 0.01 0.00 0.00 0.00 0.00 0.01 0.01 0.01 0.01 0.02 0.02
0.63 1.01 0.45 0.57 0.83 0.84 0.57 0.33 0.20 0.16 0.05 0.05 0.08 0.07 0.07 0.11 0.06 0.06 0.05 0.05 0.03 0.07 0.19 0.18 0.32 0.31 0.36 0.13 0.06 0.03 0.05 0.06 0.08 0.07 0.03 0.01 0.01 0.01 0.01 0.01 0.01 0.01 0.00 0.00 0.00 0.00 0.00 0.00 0.00 0.01 0.02 0.02 0.02 0.03
0.50 0.30 0.39 0.54 0.58 0.38 0.24 0.12 0.08 0.06 0.04 0.03 0.06 0.05 0.02 0.04 0.05 0.04 0.04 0.07 0.09 0.09 0.08 0.09 0.03 0.04 0.07 0.14 0.10 0.06 0.10 0.09 0.03 0.01 0.01 0.01 0.00 0.00 0.00 0.01 0.01 0.02 0.01 0.01 0.01 0.02 0.01 0.01 0.03 0.03 0.02 0.02 0.03 0.05
0.16 0.15 0.12 0.10 0.05 0.06 0.16 0.05 0.00 0.01 0.04 0.03 0.04 0.03 0.02 0.03 0.05 0.04 0.05 0.06 0.08 0.06 0.06 0.06 0.10 0.06 0.03 0.04 0.06 0.07 0.08 0.06 0.06 0.04 0.03 0.02 0.01 0.00 0.00 0.00 0.01 0.01 0.01 0.02 0.02 0.02 0.01 0.01 0.01 0.01 0.01 0.02 0.03 0.03
0.16 0.12 0.06 0.05 0.03 0.02 0.01 0.00 0.00 0.03 0.05 0.02 0.02 0.01 0.02 0.04 0.02 0.02 0.02 0.02 0.04 0.05 0.06 0.06 0.08 0.06 0.07 0.10 0.13 0.13 0.13 0.11 0.08 0.07 0.06 0.05 0.03 0.01 0.01 0.02 0.02 0.01 0.01 0.02 0.02 0.01 0.03 0.03 0.02 0.02 0.01 0.02 0.04 0.04
0.19 0.14 0.08 0.04 0.02 0.01 0.00 0.00 0.00 0.01 0.03 0.02 0.01 0.00 0.01 0.01 0.02 0.02 0.00 0.00 0.01 0.04 0.05 0.06 0.07 0.10 0.09 0.10 0.09 0.07 0.09 0.09 0.10 0.11 0.09 0.06 0.06 0.03 0.03 0.02 0.01 0.01 0.01 0.02 0.03 0.03 0.02 0.02 0.03 0.02 0.03 0.04 0.05 0.05
0.10 0.06 0.07 0.02 0.00 0.00 0.00 0.00 0.00 0.00 0.01 0.02 0.03 0.01 0.01 0.02 0.02 0.01 0.00 0.01 0.03 0.08 0.07 0.06 0.08 0.07 0.06 0.08 0.09 0.09 0.10 0.05 0.04 0.04 0.05 0.05 0.05 0.06 0.04 0.03 0.03 0.02 0.03 0.03 0.03 0.04 0.04 0.03 0.03 0.03 0.04 0.05 0.05 0.05
0.01 0.01 0.00 0.02 0.02 0.00 0.02 0.06 0.02 0.01 0.01 0.03 0.01 0.01 0.02 0.02 0.02 0.00 0.01 0.03 0.08 0.13 0.10 0.09 0.11 0.09 0.08 0.11 0.08 0.06 0.06 0.04 0.04 0.04 0.04 0.03 0.04 0.04 0.04 0.04 0.03 0.05 0.06 0.04 0.03 0.04 0.04 0.04 0.03 0.04 0.04 0.05 0.06 0.06
0.01 0.01 0.03 0.04 0.03 0.04 0.04 0.02 0.00 0.01 0.01 0.00 0.01 0.01 0.01 0.00 0.00 0.00 0.02 0.05 0.10 0.13 0.09 0.09 0.06 0.04 0.03 0.02 0.02 0.02 0.03 0.01 0.01 0.02 0.03 0.02 0.02 0.03 0.03 0.04 0.04 0.04 0.04 0.05 0.04 0.04 0.04 0.04 0.04 0.04 0.03 0.04 0.04 0.05
0.05 0.02 0.02 0.01 0.01 0.00 0.01 0.00 0.00 0.00 0.01 0.00 0.01 0.02 0.02 0.00 0.00 0.00 0.01 0.03 0.03 0.03 0.02 0.01 0.00 0.00 0.01 0.02 0.01 0.01 0.01 0.01 0.00 0.01 0.03 0.02 0.02 0.04 0.03 0.03 0.04 0.06 0.05 0.06 0.07 0.06 0.06 0.04 0.04 0.04 0.03 0.03 0.02 0.02
0.06 0.03 0.00 0.01 0.00 0.00 0.00 0.01 0.00 0.00 0.00 0.00 0.01 0.01 0.00 0.00 0.00 0.01 0.01 0.02 0.02 0.02 0.01 0.02 0.01 0.01 0.00 0.00 0.00 0.01 0.01 0.00 0.00 0.01 0.03 0.03 0.03 0.04 0.04 0.04 0.06 0.05 0.04 0.05 0.05 0.05 0.07 0.07 0.05 0.04 0.04 0.04 0.02 0.02
0.01 0.00 0.00 0.00 0.00 0.00 0.00 0.00 0.00 0.00 0.00 0.00 0.01 0.00 0.00 0.00 0.00 0.01 0.02 0.01 0.01 0.01 0.00 0.00 0.00 0.00 0.01 0.01 0.01 0.02 0.01 0.00 0.01 0.01 0.02 0.02 0.02 0.02 0.01 0.02 0.03 0.05 0.04 0.04 0.03 0.04 0.04 0.04 0.05 0.05 0.06 0.06 0.03 0.02
0.00 0.00 0.00 0.00 0.00 0.00 0.00 0.00 0.00 0.00 0.00 0.00 0.00 0.00 0.00 0.00 0.02 0.03 0.01 0.01 0.00 0.00 0.00 0.00 0.00 0.00 0.00 0.00 0.01 0.01 0.01 0.01 0.00 0.00 0.00 0.00 0.00 0.01 0.02 0.02 0.02 0.02 0.02 0.02 0.03 0.03 0.02 0.02 0.03 0.04 0.04 0.05 0.03 0.02
0.00 0.00 0.00 0.00 0.00 0.00 0.01 0.00 0.01 0.01 0.01 0.00 0.01 0.01 0.01 0.03 0.05 0.05 0.03 0.01 0.01 0.01 0.00 0.01 0.01 0.00 0.00 0.00 0.01 0.01 0.01 0.02 0.01 0.01 0.00 0.01 0.02 0.02 0.01 0.01 0.01 0.01 0.00 0.02 0.03 0.02 0.01 0.01 0.00 0.01 0.01 0.02 0.01 0.01
0.00 0.00 0.00 0.00 0.00 0.01 0.03 0.02 0.03 0.01 0.00 0.00 0.01 0.02 0.02 0.06 0.09 0.07 0.02 0.01 0.00 0.00 0.00 0.00 0.00 0.01 0.00 0.00 0.01 0.01 0.02 0.02 0.02 0.01 0.01 0.01 0.01 0.01 0.01 0.00 0.00 0.01 0.00 0.01 0.01 0.02 0.03 0.01 0.02 0.03 0.01 0.01 0.02 0.02
0.00 0.00 0.00 0.00 0.02 0.04 0.03 0.01 0.01 0.00 0.00 0.00 0.00 0.01 0.03 0.05 0.05 0.06 0.04 0.03 0.03 0.01 0.00 0.00 0.01 0.00 0.00 0.00 0.00 0.00 0.00 0.00 0.00 0.00 0.00 0.00 0.01 0.01 0.01 0.00 0.00 0.01 0.01 0.01 0.01 0.00 0.01 0.01 0.01 0.01 0.01 0.00 0.00 0.00
0.00 0.00 0.00 0.00 0.03 0.02 0.02 0.01 0.01 0.01 0.01 0.01 0.01 0.01 0.01 0.01 0.01 0.02 0.03 0.04 0.03 0.01 0.00 0.00 0.00 0.00 0.00 0.00 0.00 0.00 0.00 0.00 0.00 0.00 0.00 0.00 0.00 0.00 0.00 0.00 0.00 0.00 0.00 0.00 0.00 0.00 0.00 0.01 0.01 0.01 0.01 0.00 0.00 0.01
0.00 0.00 0.00 0.00 0.01 0.02 0.01 0.01 0.00 0.01 0.01 0.01 0.01 0.01 0.01 0.00 0.00 0.02 0.02 0.03 0.01 0.00 0.00 0.01 0.01 0.00 0.00 0.00 0.00 0.00 0.00 0.00 0.00 0.00 0.00 0.00 0.00 0.00 0.00 0.00 0.00 0.00 0.00 0.00 0.00 0.00 0.00 0.00 0.01 0.01 0.00 0.00 0.00 0.00